Date String (YYYY-MM-DD hh:mm:ss) UTC,Instrument flags,Ambient pressure (hPa),Sample flow (lpm),Bypass flow (lpm),Sample temperature (°C),Ambient temperature (°C),ASC tube jacket temperature (°C),LED temperature (°C),Box temperature (°C),Sample RH (%),Span deviation,Mass concentration (μg/m³),Mass concentration (μg/m³),Mass concentration (μg/m³)
DateTimeUTC,F1_M11,P_M11,Q1_M11,Q2_M11,T1_M11,T2_M11,T3_M11,T4_M11,T5_M11,U1_M11,ZSPAN_M11,X2_M11,X0_M11,X1_M11
2023-05-19 20:00:00,,0839.2,5.00,0.00,27.6,26.1,00.0,35.9,29.3,27.3,0002.2,0115.12,0161.98,0106.03
2023-05-19 20:01:00,,0839.2,5.01,0.00,27.6,26.2,00.0,35.9,29.3,27.5,0002.4,0114.85,0160.90,0105.87
2023-05-19 20:02:00,,0839.2,5.00,0.00,27.6,26.2,00.0,35.9,29.3,27.2,0002.5,0114.49,0159.66,0105.74
2023-05-19 20:03:00,,0839.2,5.00,0.00,27.6,26.2,00.0,35.9,29.3,26.8,0002.5,0114.18,0159.01,0105.59
2023-05-19 20:04:00,,0839.2,5.00,0.00,27.6,26.2,00.0,35.9,29.3,26.9,0002.5,0113.87,0158.34,0105.41
2023-05-19 20:05:00,,0839.2,5.00,0.00,27.6,26.2,00.0,35.9,29.3,26.9,0002.6,0113.83,0157.87,0105.36
2023-05-19 20:06:00,,0839.2,4.99,0.00,27.6,26.2,00.0,35.9,29.3,27.0,0002.6,0113.61,0157.89,0105.16
2023-05-19 20:07:00,,0839.2,5.00,0.00,27.6,26.2,00.0,35.9,29.3,26.8,0002.6,0113.37,0157.60,0104.92
2023-05-19 20:08:00,,0839.2,5.00,0.00,27.7,26.2,00.0,35.9,29.3,26.8,0002.6,0113.08,0157.04,0104.65
2023-05-19 20:09:00,,0839.2,5.00,0.00,27.7,26.2,00.0,36.0,29.3,26.8,0002.7,0112.85,0156.31,0104.40
2023-05-19 20:10:00,,0839.2,5.01,0.00,27.7,26.2,00.0,36.0,29.3,26.9,0002.6,0112.50,0156.04,0104.16
2023-05-19 20:11:00,,0839.2,5.01,0.00,27.7,26.2,00.0,36.0,29.3,26.4,0002.5,0112.05,0155.28,0103.81
2023-05-19 20:12:00,,0839.2,5.00,0.00,27.7,26.2,00.0,36.0,29.3,26.6,0002.5,0111.65,0154.61,0103.49
2023-05-19 20:13:00,,0839.2,5.00,0.00,27.7,26.2,00.0,36.0,29.4,27.3,0002.5,0111.25,0153.87,0103.20
2023-05-19 20:14:00,,0839.2,5.00,0.00,27.7,26.2,00.0,36.0,29.4,27.8,0002.5,0111.04,0153.60,0102.95
2023-05-19 20:15:00,,0839.2,5.00,0.00,27.7,26.2,00.0,36.0,29.4,26.7,0002.7,0110.80,0153.15,0102.71
2023-05-19 20:16:00,,0839.2,5.00,0.00,27.7,26.3,00.0,36.0,29.4,27.0,0002.7,0110.56,0152.83,0102.50
2023-05-19 20:17:00,,0839.2,5.01,0.00,27.7,26.3,00.0,36.0,29.4,27.0,0002.8,0110.35,0152.26,0102.31
2023-05-19 20:18:00,,0839.2,4.99,0.00,27.7,26.3,00.0,36.0,29.4,27.1,0002.8,0110.21,0151.66,0102.28
2023-05-19 20:19:00,,0839.2,5.00,0.00,27.7,26.3,00.0,36.0,29.4,27.5,0002.8,0110.04,0151.07,0102.20
2023-05-19 20:20:00,,0839.2,5.00,0.00,27.8,26.3,00.0,36.0,29.4,26.8,0002.8,0109.75,0150.65,0102.04
2023-05-19 20:21:00,,0839.2,5.00,0.00,27.8,26.3,00.0,36.0,29.4,26.3,0002.8,0109.55,0150.68,0101.91
2023-05-19 20:22:00,,0839.2,4.98,0.00,27.8,26.3,00.0,36.1,29.4,26.8,0002.9,0109.53,0150.97,0101.88
2023-05-19 20:23:00,,0839.2,5.00,0.00,27.8,26.3,00.0,36.1,29.4,26.7,0002.9,0109.52,0151.46,0101.90
2023-05-19 20:24:00,,0839.2,5.00,0.00,27.8,26.3,00.0,36.1,29.5,27.2,0002.9,0109.42,0151.47,0101.77
2023-05-19 20:25:00,,0839.2,5.00,0.00,27.8,26.3,00.0,36.1,29.4,27.0,0002.9,0109.16,0150.89,0101.64
2023-05-19 20:26:00,,0839.2,5.01,0.00,27.8,26.3,00.0,36.1,29.5,26.6,0002.9,0109.07,0150.59,0101.63
2023-05-19 20:27:00,,0839.2,5.00,0.00,27.8,26.3,00.0,36.1,29.5,26.6,0002.9,0108.70,0149.72,0101.42
2023-05-19 20:28:00,,0839.2,5.01,0.00,27.8,26.3,00.0,36.1,29.5,26.6,0002.9,0108.45,0149.46,0101.28
2023-05-19 20:29:00,,0839.2,5.01,0.00,27.8,26.3,00.0,36.1,29.5,26.1,0002.9,0108.11,0148.86,0101.05
2023-05-19 20:30:00,,0839.2,5.00,0.00,27.8,26.3,00.0,36.1,29.5,25.7,0002.8,0107.89,0148.70,0100.81
2023-05-19 20:31:00,,0839.2,5.00,0.00,27.8,26.4,00.0,36.1,29.5,25.7,0002.9,0107.77,0148.59,0100.67
2023-05-19 20:32:00,,0839.2,4.99,0.00,27.8,26.4,00.0,36.1,29.5,25.5,0002.9,0107.65,0148.34,0100.51
2023-05-19 20:33:00,,0839.2,4.99,0.00,27.9,26.4,00.0,36.1,29.5,26.5,0003.0,0107.49,0148.10,0100.38
2023-05-19 20:34:00,,0839.2,5.00,0.00,27.9,26.4,00.0,36.1,29.5,26.9,0003.0,0107.40,0147.34,0100.31
2023-05-19 20:35:00,,0839.2,4.99,0.00,27.9,26.4,00.0,36.2,29.5,26.2,0003.0,0107.33,0147.05,0100.37
2023-05-19 20:36:00,,0839.1,5.00,0.00,27.9,26.4,00.0,36.2,29.5,26.1,0003.0,0107.13,0146.80,0100.27
2023-05-19 20:37:00,,0839.1,5.00,0.00,27.9,26.4,00.0,36.2,29.5,25.9,0003.0,0106.87,0146.49,0100.04
2023-05-19 20:38:00,,0839.1,5.00,0.00,27.9,26.4,00.0,36.2,29.6,25.8,0002.9,0106.82,0146.54,0099.99
2023-05-19 20:39:00,,0839.1,5.01,0.00,27.9,26.4,00.0,36.2,29.6,25.9,0003.0,0106.67,0145.97,0099.87
2023-05-19 20:40:00,,0839.1,5.00,0.00,27.9,26.4,00.0,36.2,29.6,26.0,0003.0,0106.73,0146.13,0099.88
2023-05-19 20:41:00,,0839.1,5.00,0.00,27.9,26.5,00.0,36.2,29.6,26.4,0003.0,0106.70,0146.02,0099.83
2023-05-19 20:42:00,,0839.1,5.00,0.00,27.9,26.5,00.0,36.2,29.6,26.6,0003.1,0106.49,0145.64,0099.65
2023-05-19 20:43:00,,0839.2,4.99,0.00,27.9,26.5,00.0,36.2,29.6,26.8,0003.1,0106.41,0145.03,0099.59
2023-05-19 20:44:00,,0839.2,5.00,0.00,28.0,26.5,00.0,36.2,29.6,26.2,0003.1,0106.25,0144.57,0099.47
2023-05-19 20:45:00,,0839.2,5.00,0.00,28.0,26.5,00.0,36.2,29.6,26.3,0003.1,0106.08,0144.44,0099.30
2023-05-19 20:46:00,,0839.1,5.01,0.00,27.9,26.4,00.0,36.2,29.6,26.1,0003.0,0105.97,0144.64,0099.11
2023-05-19 20:47:00,,0839.1,5.01,0.00,27.9,26.4,00.0,36.2,29.6,26.6,0003.0,0106.03,0145.05,0099.05
2023-05-19 20:48:00,,0839.1,5.00,0.00,28.0,26.4,00.0,36.2,29.6,26.4,0003.0,0106.19,0145.78,0099.17
2023-05-19 20:49:00,,0839.1,5.00,0.00,27.9,26.4,00.0,36.2,29.6,26.7,0003.0,0106.29,0145.91,0099.23
2023-05-19 20:50:00,,0839.1,5.00,0.00,27.9,26.4,00.0,36.3,29.6,26.0,0003.0,0106.46,0146.15,0099.40
2023-05-19 20:51:00,,0839.1,5.00,0.00,27.9,26.4,00.0,36.3,29.6,26.5,0003.0,0106.51,0146.20,0099.44
2023-05-19 20:52:00,,0839.1,4.99,0.00,27.9,26.4,00.0,36.3,29.6,26.9,0003.0,0106.66,0146.40,0099.58
2023-05-19 20:53:00,,0839.1,5.00,0.00,27.9,26.4,00.0,36.3,29.6,27.3,0003.0,0106.80,0146.62,0099.77
2023-05-19 20:54:00,,0839.1,4.99,0.00,27.9,26.4,00.0,36.3,29.6,27.5,0002.9,0106.93,0146.78,0099.89
2023-05-19 20:55:00,,0839.1,4.99,0.00,27.9,26.4,00.0,36.3,29.6,27.0,0002.9,0107.13,0147.06,0100.02
2023-05-19 20:56:00,,0839.1,5.00,0.00,27.9,26.4,00.0,36.3,29.6,26.8,0002.8,0107.27,0146.95,0100.21
2023-05-19 20:57:00,,0839.1,5.01,0.00,27.9,26.5,00.0,36.3,29.6,27.2,0002.8,0107.36,0146.69,0100.36
2023-05-19 20:58:00,,0839.1,5.01,0.00,27.9,26.5,00.0,36.3,29.6,27.2,0002.8,0107.35,0146.57,0100.39
2023-05-19 20:59:00,,0839.1,5.00,0.00,27.9,26.5,00.0,36.3,29.6,26.7,0002.8,0107.32,0146.31,0100.39
